Regional Weather Roundup
Issued by NWS

Home | Current Version | Previous Version | Text Only | Print | Product List | Glossary Off
Versions: 1 2 3 4 5 6 7 8 9 10 11 12 13 14 15 16 17 18 19 20 21 22 23 24 25 26 27 28 29 30 31 32 33 34 35 36 37 38 39 40 41 42 43 44 45 46 47 48 49 50

183
ASUS43 KLMK 010010
RWRKY
KENTUCKY REGIONAL WEATHER ROUNDUP
NATIONAL WEATHER SERVICE LOUISVILLE KY
800 PM EDT FRI SEP 30 2016

NOTE "FAIR" INDICATES FEW OR NO CLOUDS BELOW 12,000 FEET
WITH NO SIGNIFICANT WEATHER AND/OR OBSTRUCTIONS TO VISIBILITY.

KYZ001>023-026-027-061>063-070>075-010100-
WESTERN AND SOUTH CENTRAL KENTUCKY

CITY           SKY/WX    TMP DP  RH WIND       PRES   REMARKS
PADUCAH        MOCLDY    61  58  90 W5        30.02R
HENDERSON      CLOUDY    63  57  82 N5        29.99R
OWENSBORO      MOCLDY   N/A N/A N/A SE9       30.00R
HOPKINSVILLE   DRIZZLE   63  61  94 W1        30.00F
BOWLING GREEN  PTCLDY    61  57  87 S5        30.00F
GLASGOW        MOCLDY    58  58 100 S3        30.01F
$$

KYZ024-025-028>034-038-045-046-053-010100-
NORTH CENTRAL KENTUCKY

CITY           SKY/WX    TMP DP  RH WIND       PRES   REMARKS
LOUISVILLE/SDF MOCLDY    58  55  90 E6        30.01F
LOUISVILLE/LOU MOCLDY    58  53  84 SE5       30.02S
FORT KNOX      PTCLDY    55  54  98 CALM      30.00R
$$

KYZ035>037-039>044-047>052-055>060-089>105-010100-
NORTHEAST KENTUCKY

CITY           SKY/WX    TMP DP  RH WIND       PRES   REMARKS
LEXINGTON      LGT RAIN  57  52  83 SE3       30.02F
COVINGTON      MOCLDY    59  53  80 SW5       30.01S
FRANKFORT      CLOUDY    59  52  77 W3        30.01S
$$

KYZ054-064>069-076>088-106>120-010100-
SOUTHEAST KENTUCKY

CITY           SKY/WX    TMP DP  RH WIND       PRES   REMARKS
JACKSON        CLEAR     60  47  61 CALM      30.05R
LONDON         CLOUDY    60  50  69 W5        30.04S
SOMERSET       CLOUDY    55  52  88 SW8       30.06S
MIDDLESBORO    CLEAR     58  53  83 CALM      30.06R
MONTICELLO     CLOUDY    58  53  84 VRB6      30.06F
$$





USA.gov is the U.S. government's official web portal to all federal, state and local government web resources and services.